Keahole Point, HI

9:32 PM HST on March 27, 2017 (GMT -1000)
Kona International At Keahole

Weather History for PHKO - April, 2013

Change the Weather History Date:

Monday, April 22, 2013

  Actual Average Record
Temperature  
Mean Temperature 78 °F -  
Max Temperature 84 °F 80 °F 89 °F (1983)
Min Temperature 72 °F 69 °F 66 °F (1983)
Cooling Degree Days 13    
Growing Degree Days 28 (Base 50)    
Moisture  
Dew Point 66 °F    
Average Humidity 65    
Maximum Humidity 74    
Minimum Humidity 53    
Precipitation  
Precipitation 0.00 in - - ()
Sea Level Pressure  
Sea Level Pressure 30.01 in    
Wind  
Wind Speed 5 mph (SE)    
Max Wind Speed 15 mph    
Max Gust Speed -    
Visibility 10 miles    
Events      
Averages and records for this station are not official NWS values.
T = Trace of Precipitation, MM = Missing Value Source: NWS Daily Summary

Daily Weather History Graph

Daily Weather History Graph

Search for Another Location

Airport or City:

Trip Planner

Search our weather history database for the weather conditions in past years. The results will help you decide how hot, cold, wet, or windy it might be!

Date:

Astronomy

Apr. 22, 2013 Rise Set
Actual Time 6:00 AM HST 6:44 PM HST
Civil Twilight 5:38 AM HST 7:07 PM HST
Nautical Twilight 5:11 AM HST 7:33 PM HST
Astronomical Twilight 4:44 AM HST 8:01 PM HST
Moon 4:06 PM HST (4/22) 3:36 AM HST (4/22)
Length of Visible Light 13h 29m
Length of Day
12h 43m
Waxing Gibbous, 89% of the Moon is Illuminated
Apr 22
Waxing Gibbous
Apr 25
Full
May 2
Last Quarter
May 9
New
May 17
First Quarter

Hourly Weather History & Observations

Time (HST) Temp. Heat Index Dew Point Humidity Pressure Visibility Wind Dir Wind Speed Gust Speed Precip Events Conditions
12:53 AM 75.9 °F - 66.9 °F 74% 30.01 in 10.0 mi Calm Calm - N/A   Overcast
1:12 AM 75.2 °F - 66.2 °F 73% 30.01 in 10.0 mi East 4.6 mph - N/A   Mostly Cloudy
1:53 AM 75.0 °F - 66.0 °F 73% 30.00 in 10.0 mi East 4.6 mph - N/A   Mostly Cloudy
2:53 AM 73.9 °F - 64.9 °F 73% 29.98 in 10.0 mi East 4.6 mph - N/A   Mostly Cloudy
3:53 AM 73.0 °F - 64.0 °F 73% 29.98 in 10.0 mi ENE 5.8 mph - N/A   Scattered Clouds
4:53 AM 73.0 °F - 64.0 °F 73% 29.99 in 10.0 mi Calm Calm - N/A   Scattered Clouds
5:53 AM 72.0 °F - 63.0 °F 73% 30.01 in 10.0 mi NNE 3.5 mph - N/A   Partly Cloudy
6:53 AM 73.9 °F - 64.0 °F 71% 30.02 in 10.0 mi NNE 6.9 mph - N/A   Partly Cloudy
7:53 AM 79.0 °F - 64.9 °F 62% 30.04 in 10.0 mi North 9.2 mph - N/A   Clear
8:53 AM 80.1 °F 81.9 °F 64.9 °F 60% 30.05 in 10.0 mi NW 10.4 mph - N/A   Clear
9:53 AM 82.0 °F 84.1 °F 66.0 °F 58% 30.04 in 10.0 mi WNW 11.5 mph - N/A   Clear
10:53 AM 82.0 °F 84.5 °F 66.9 °F 60% 30.05 in 10.0 mi West 9.2 mph - N/A   Clear
11:53 AM 81.0 °F 83.8 °F 68.0 °F 65% 30.04 in 10.0 mi West 8.1 mph - N/A   Scattered Clouds
12:53 PM 82.0 °F 84.5 °F 66.9 °F 60% 30.02 in 10.0 mi SW 8.1 mph - N/A   Clear
1:53 PM 84.0 °F 85.8 °F 64.9 °F 53% 29.99 in 10.0 mi SSW 10.4 mph - N/A   Mostly Cloudy
2:53 PM 82.9 °F 85.8 °F 68.0 °F 60% 29.98 in 10.0 mi South 12.7 mph - N/A   Partly Cloudy
3:53 PM 82.9 °F 85.4 °F 66.9 °F 58% 29.97 in 10.0 mi South 15.0 mph - N/A   Scattered Clouds
4:53 PM 81.0 °F 83.8 °F 68.0 °F 65% 29.97 in 10.0 mi South 11.5 mph - N/A   Clear
5:53 PM 80.1 °F 82.3 °F 66.9 °F 64% 29.99 in 10.0 mi South 9.2 mph - N/A   Partly Cloudy
6:53 PM 79.0 °F - 64.9 °F 62% 29.99 in 10.0 mi SSE 5.8 mph - N/A   Clear
7:53 PM 79.0 °F - 64.9 °F 62% 30.01 in 10.0 mi SE 5.8 mph - N/A   Mostly Cloudy
8:53 PM 79.0 °F - 64.0 °F 60% 30.03 in 10.0 mi East 4.6 mph - N/A   Partly Cloudy
9:53 PM 78.1 °F - 62.1 °F 58% 30.04 in 10.0 mi East 5.8 mph - N/A   Clear
10:53 PM 77.0 °F - 64.9 °F 66% 30.05 in 10.0 mi SE 3.5 mph - N/A   Mostly Cloudy
11:53 PM 77.0 °F - 66.0 °F 69% 30.05 in 10.0 mi Calm Calm - N/A   Mostly Cloudy